Time,TemperatureF,DewpointF,PressureIn,WindDirection,WindDirectionDegrees,WindSpeedMPH,WindSpeedGustMPH,Humidity,HourlyPrecipIn,Conditions,Clouds,dailyrainin,SoftwareType,DateUTC
2018-01-20 00:11:00,38.9,24.0,29.70,WSW,253,13.0,15.0,55,0.00,,,0.00,weatherlink.com 1.10,2018-01-20 05:11:00,
2018-01-20 00:26:00,39.2,24.0,29.69,West,273,15.0,19.0,54,0.00,,,0.00,weatherlink.com 1.10,2018-01-20 05:26:00,
2018-01-20 00:41:00,39.1,24.0,29.69,WSW,248,11.0,16.0,55,0.00,,,0.00,weatherlink.com 1.10,2018-01-20 05:41:00,
2018-01-20 00:56:00,39.2,24.0,29.68,SW,232,14.0,24.0,54,0.00,,,0.00,weatherlink.com 1.10,2018-01-20 05:56:00,
2018-01-20 01:11:00,39.2,24.0,29.68,West,264,10.0,20.0,54,0.00,,,0.00,weatherlink.com 1.10,2018-01-20 06:11:00,
2018-01-20 01:26:00,39.0,23.0,29.68,SW,233,6.0,17.0,54,0.00,,,0.00,weatherlink.com 1.10,2018-01-20 06:26:00,
2018-01-20 01:41:00,38.9,23.0,29.68,WSW,253,11.0,15.0,54,0.00,,,0.00,weatherlink.com 1.10,2018-01-20 06:41:00,
2018-01-20 01:56:00,38.9,23.0,29.69,West,266,10.0,20.0,54,0.00,,,0.00,weatherlink.com 1.10,2018-01-20 06:56:00,
2018-01-20 02:11:00,38.8,23.0,29.70,SW,224,14.0,20.0,54,0.00,,,0.00,weatherlink.com 1.10,2018-01-20 07:11:00,
2018-01-20 02:26:00,38.5,23.0,29.71,West,266,7.0,14.0,54,0.00,,,0.00,weatherlink.com 1.10,2018-01-20 07:26:00,
2018-01-20 02:41:00,38.4,23.0,29.71,West,270,12.0,14.0,54,0.00,,,0.00,weatherlink.com 1.10,2018-01-20 07:41:00,
2018-01-20 02:56:00,38.3,23.0,29.71,SW,232,8.0,14.0,54,0.00,,,0.00,weatherlink.com 1.10,2018-01-20 07:56:00,
2018-01-20 03:11:00,37.9,23.0,29.69,WSW,251,7.0,15.0,55,0.00,,,0.00,weatherlink.com 1.10,2018-01-20 08:11:00,
2018-01-20 03:26:00,37.3,23.0,29.70,West,260,6.0,14.0,56,0.00,,,0.00,weatherlink.com 1.10,2018-01-20 08:26:00,
2018-01-20 03:43:00,37.0,23.0,29.70,WSW,250,6.0,10.0,57,0.00,,,0.00,weatherlink.com 1.10,2018-01-20 08:43:00,
2018-01-20 03:56:00,36.5,23.0,29.70,WSW,240,7.0,10.0,58,0.00,,,0.00,weatherlink.com 1.10,2018-01-20 08:56:00,
2018-01-20 04:11:00,36.3,23.0,29.70,WSW,247,5.0,11.0,59,0.00,,,0.00,weatherlink.com 1.10,2018-01-20 09:11:00,
2018-01-20 04:26:00,36.1,23.0,29.70,WSW,258,5.0,9.0,59,0.00,,,0.00,weatherlink.com 1.10,2018-01-20 09:26:00,
2018-01-20 04:41:00,36.1,23.0,29.71,West,279,7.0,11.0,60,0.00,,,0.00,weatherlink.com 1.10,2018-01-20 09:41:00,
2018-01-20 04:56:00,36.6,23.0,29.71,West,272,5.0,10.0,59,0.00,,,0.00,weatherlink.com 1.10,2018-01-20 09:56:00,
2018-01-20 05:11:00,36.6,24.0,29.71,WSW,246,7.0,10.0,60,0.00,,,0.00,weatherlink.com 1.10,2018-01-20 10:11:00,
2018-01-20 05:26:00,36.9,24.0,29.72,West,274,6.0,15.0,60,0.00,,,0.00,weatherlink.com 1.10,2018-01-20 10:26:00,
2018-01-20 05:41:00,38.5,25.0,29.72,WSW,253,5.0,24.0,58,0.00,,,0.00,weatherlink.com 1.10,2018-01-20 10:41:00,
2018-01-20 05:56:00,39.2,25.0,29.73,WNW,297,12.0,20.0,58,0.00,,,0.00,weatherlink.com 1.10,2018-01-20 10:56:00,
2018-01-20 06:11:00,39.6,26.0,29.73,WNW,289,9.0,18.0,58,0.00,,,0.00,weatherlink.com 1.10,2018-01-20 11:11:00,
2018-01-20 06:27:00,39.9,26.0,29.74,West,259,11.0,21.0,58,0.00,,,0.00,weatherlink.com 1.10,2018-01-20 11:27:00,
2018-01-20 06:42:00,39.8,26.0,29.75,West,272,11.0,20.0,58,0.00,,,0.00,weatherlink.com 1.10,2018-01-20 11:42:00,
2018-01-20 06:57:00,39.7,26.0,29.75,WNW,300,14.0,15.0,59,0.00,,,0.00,weatherlink.com 1.10,2018-01-20 11:57:00,
2018-01-20 07:12:00,39.7,27.0,29.75,West,269,11.0,16.0,60,0.00,,,0.00,weatherlink.com 1.10,2018-01-20 12:12:00,
2018-01-20 07:27:00,39.6,27.0,29.76,West,277,5.0,16.0,60,0.00,,,0.00,weatherlink.com 1.10,2018-01-20 12:27:00,
2018-01-20 07:42:00,39.5,27.0,29.77,WNW,294,4.0,13.0,61,0.00,,,0.00,weatherlink.com 1.10,2018-01-20 12:42:00,
2018-01-20 07:57:00,39.6,27.0,29.78,West,271,8.0,16.0,61,0.00,,,0.00,weatherlink.com 1.10,2018-01-20 12:57:00,
2018-01-20 08:12:00,39.8,27.0,29.79,West,267,9.0,16.0,61,0.00,,,0.00,weatherlink.com 1.10,2018-01-20 13:12:00,
2018-01-20 08:27:00,40.2,28.0,29.80,West,276,8.0,20.0,61,0.00,,,0.00,weatherlink.com 1.10,2018-01-20 13:27:00,
2018-01-20 08:42:00,40.3,28.0,29.80,WSW,252,7.0,18.0,61,0.00,,,0.00,weatherlink.com 1.10,2018-01-20 13:42:00,
2018-01-20 08:57:00,40.5,28.0,29.80,WSW,237,8.0,18.0,61,0.00,,,0.00,weatherlink.com 1.10,2018-01-20 13:57:00,
2018-01-20 09:12:00,40.7,28.0,29.81,WNW,290,12.0,21.0,60,0.00,,,0.00,weatherlink.com 1.10,2018-01-20 14:12:00,
2018-01-20 09:27:00,41.0,28.0,29.81,WNW,293,18.0,24.0,60,0.00,,,0.00,weatherlink.com 1.10,2018-01-20 14:27:00,
2018-01-20 09:42:00,41.4,28.0,29.82,West,276,12.0,26.0,60,0.00,,,0.00,weatherlink.com 1.10,2018-01-20 14:42:00,
2018-01-20 09:57:00,41.8,28.0,29.81,WNW,288,10.0,25.0,59,0.00,,,0.00,weatherlink.com 1.10,2018-01-20 14:57:00,
2018-01-20 10:12:00,42.3,28.0,29.82,West,281,8.0,21.0,58,0.00,,,0.00,weatherlink.com 1.10,2018-01-20 15:12:00,
2018-01-20 10:27:00,42.6,29.0,29.83,WNW,293,12.0,20.0,58,0.00,,,0.00,weatherlink.com 1.10,2018-01-20 15:27:00,